National Weather Service United States Department of Commerce
Data are updated at 11 and 26 past the hour. Coastal data is often not avaialable until 26 past the hour.
Check the Preious Version of the data HERE if data are missing.  

NYCBOYDAT LOC
TTAA00 KOKX 140428

Coastal Waters Roundup...For Informational Purposes Only
National Weather Service New York NY
1100 PM EST TUE NOV 13 2018

...Ocean Waters...
  
STATION/POSITION TIME  TEMP    WIND        PRES    WAVE   WND WV SWELL
                       AIR SEA DIR/SP/G            HT/PER HT/PER HT/PER/DIR
                 (UTC) (F)     (DEG/KT/KT) (MB)    (FT/S) (FT/S) (FT/S/D)
NY Harb Entrance 0410   47 54  290/ 21/ 27 1019.7
20 S Fire Is NY  0350   48 56  300/ 21/ 27 1018.5    7/10   7/ 6   5/160/10
23 SSW Montauk P 0350   47 57  290/ 21/ 25 1017.3   10/10   5/ 6   8/140/10
25 SE Block IS   0413      56                N/A    11/11   8/10   5/170/11
15 E Barnegat NJ NOT AVBL
Texas Tower #4   0350   49     320/ 21/ 27 1018.4   10/11  10/ 7   3/160/11

...Long Island South Shore (WeatherFlow - Wind is MPH)...
  
STATION/POSITION TIME  TEMP    WIND        PRES    WAVE   WND WV SWELL
                       AIR SEA DIR/SP/G            HT/PER HT/PER HT/PER/DIR
                 (UTC) (F)     (DEG/KT/KT) (MB)    (FT/S) (FT/S) (FT/S/D)
Great South Bay  0400   45 48  300/ 16/ 19   N/A

CITY           SKY/WX    TMP DP  RH WIND       PRES   REMARKS
Breezy Point     N/A     43 N/A N/A W13G23      N/A                   
Jones Beach CG   N/A     45 N/A N/A NW10        N/A                   
Amityville       N/A     43 N/A N/A W10G17      N/A                   
Boat Channel     N/A     45 N/A N/A W18         N/A                   
Fire Island CG   N/A     43 N/A N/A NW13G20     N/A                   
Pt O Woods       N/A    N/A N/A N/A NW21        N/A                   
Blue Pt          N/A     43 N/A N/A W12G21      N/A                   
East Moriches    N/A    N/A N/A N/A NW14G24     N/A                   
Shinnecock Inl   N/A     45 N/A N/A W13         N/A                   
Mecox Bay        N/A     43 N/A N/A NW9G20      N/A                   
Napeaque         N/A    N/A N/A N/A NW15G28     N/A                   

...Long Island Sound...
  
STATION/POSITION TIME  TEMP    WIND        PRES    WAVE   WND WV SWELL
                       AIR SEA DIR/SP/G            HT/PER HT/PER HT/PER/DIR
                 (UTC) (F)     (DEG/KT/KT) (MB)    (FT/S) (FT/S) (FT/S/D)
Kings Point      0400   44 53  350/ 13/ 18 1020.6
Execution Rocks  0400      53  300/ 14/ 19   N/A
Western LI Sound NOT AVBL
Bridgeport NOS   0400          300/  5/  8   N/A
New Haven NOS    0400   43 56  330/ 10/ 12 1018.2
Central LI Sound 0330   46 56  300/ 17/ 23   N/A     3/ 4
Ledge Light      NOT AVBL

...Long Island Sound Coastal  (WeatherFlow - Wind is MPH)...
  
CITY           SKY/WX    TMP DP  RH WIND       PRES   REMARKS
Larchmont        N/A     41 N/A N/A W16G22      N/A                   
Norwalk          N/A     41 N/A N/A W16         N/A                   
Bayville         N/A     45 N/A N/A NW22        N/A                   
Eatons Neck      N/A     43 N/A N/A NW28G35     N/A                   
Mt Sinai         N/A    N/A N/A N/A NW16G23     N/A                   
New Haven Harb   N/A     41 N/A N/A NW6         N/A                   
Hammonasset      N/A     41 N/A N/A W8G17       N/A                   
USCG Academy     N/A     41 N/A N/A NW12G17     N/A                   
Gull Island      N/A     43 N/A N/A NW22        N/A                   
Fishers Island   N/A     43 N/A N/A NW14G22     N/A                   

...Block Island Sound (WeatherFlow - Wind is MPH)...
  
CITY           SKY/WX    TMP DP  RH WIND       PRES   REMARKS
Block Island     N/A     45 N/A N/A NW28G37     N/A                   
Ninigret Pond    N/A     41 N/A N/A NW9G20      N/A                   
Point Judith     N/A     43 N/A N/A W25G32      N/A                   

...NY Harbor...
  
STATION/POSITION TIME  TEMP    WIND        PRES    WAVE   WND WV SWELL
                       AIR SEA DIR/SP/G            HT/PER HT/PER HT/PER/DIR
                 (UTC) (F)     (DEG/KT/KT) (MB)    (FT/S) (FT/S) (FT/S/D)
Bergen Point     0400   44 52              1020.0
Robbins Reef     0400   44     310/ 16/ 22 1020.3
Sandy Hook       0400   45 50  300/ 15/ 19 1021.3

...NY Harbor (WeatherFlow - Wind is MPH)...
  
CITY           SKY/WX    TMP DP  RH WIND       PRES   REMARKS
Bayonne          N/A     41 N/A N/A W10G17      N/A                   
Perth Amboy      N/A     43 N/A N/A W14         N/A                   
Sandy Hook       N/A    N/A N/A N/A NW21G28     N/A                   

...New England Waters...
  
STATION/POSITION TIME  TEMP    WIND        PRES    WAVE   WND WV SWELL
                       AIR SEA DIR/SP/G            HT/PER HT/PER HT/PER/DIR
                 (UTC) (F)     (DEG/KT/KT) (MB)    (FT/S) (FT/S) (FT/S/D)
Buzzards Bay MA  0400   44     310/ 30/ 33 1015.9
Nantucket Shoals NOT AVBL
Nantucket Sound  0410   46 52  280/ 21/ 27 1014.7
Boston Harbor    0350   45 51  280/ 23/ 27 1012.2    3/ 4   3/ 4   2/120/ 8
Mass Bay         0304   44 51  290/ 19/ 21 1010.8    4/ 8
Jeffrey's Ledge  NOT AVBL
Isle of Shoals   0400   41     290/ 26/ 31 1011.4
Mnt Desert Rock  0400   42     280/ 25/ 30 1006.2
Matinicus Rock M 0400   42     290/ 31/ 34 1007.0
Gulf of Maine    0350   45 51              1008.8    9/ 6
12 SE Portland M 0350   42 48  270/ 17/ 21 1009.5    4/ 8   2/ 3   3/140/ 8

...Southern NJ Coast...
  
STATION/POSITION TIME  TEMP    WIND        PRES    WAVE   WND WV SWELL
                       AIR SEA DIR/SP/G            HT/PER HT/PER HT/PER/DIR
                 (UTC) (F)     (DEG/KT/KT) (MB)    (FT/S) (FT/S) (FT/S/D)
Delaware Bay     0350      59              1022.2    6/10   5/ 5   3/140/10

...Mid-Atlantic and Southeast Coast... 
  
STATION/POSITION TIME  TEMP    WIND        PRES    WAVE   WND WV SWELL
                       AIR SEA DIR/SP/G            HT/PER HT/PER HT/PER/DIR
                 (UTC) (F)     (DEG/KT/KT) (MB)    (FT/S) (FT/S) (FT/S/D)
Thomas Point MD  0400   45 52  290/ 12/ 13 1024.5
Diamond Shoals N 0410   61 78  360/ 21/ 25 1021.3
Cape Lookout NC  0400           10/ 13/ 15 1021.6
Frying Pan Shls  0410   69 74   10/ 14/ 17 1020.0
Duck Pier NC     0400   53 62   10/ 20/ 24 1021.6
Folly Island SC  0400   60      20/  8/ 10 1020.9
St Augustine FL  0400   70 75  360/ 29/ 32 1019.3
64 E VA Beach VA 0350   54 63  340/ 19/ 25 1021.5    8/ 6   7/ 6   3/140/ 9
Edisto SC        0410   67 73   20/ 16/ 19 1020.3
Grays Reef GA    0350   66 72  360/ 17/ 19 1020.0    4/ 8   3/ 4   2/110/ 8
20 E Cape Canave 0410   81     180/ 12/ 14 1017.9
South Hatteras N 0410      78              1019.0
Georges Bank     NOT AVBL
$$

 

Updated:  1/4/16